Location: Gloden
(48.4833°N, 15.3167°E)
Time: 01:38:59
(UTC+00:00)

Cosmos 1441 Rocket - Visible Passes

Search period start: 03 April 2020 00:00
Search period end: 13 April 2020 00:00
Orbit: 496 x 541 km, 81.1° (Epoch: 02 April)

Date Brightness Start Highest point End Pass type
(mag) Time Alt. Az. Time Alt. Az. Time Alt. Az.
03 Apr 6.2 00:42:58 10° NNW 00:43:13 12° NNW 00:43:13 12° NNW visible
04 Apr 6.2 00:28:50 10° NNW 00:29:09 12° NNW 00:29:09 12° NNW visible
05 Apr 6.2 00:14:42 10° N 00:15:05 12° N 00:15:05 12° N visible
06 Apr 6.2 00:00:35 10° N 00:01:02 13° N 00:01:02 13° N visible
06 Apr 6.3 23:46:28 10° N 23:46:59 13° N 23:46:59 13° N visible
07 Apr 6.2 23:32:21 10° N 23:32:57 14° N 23:32:57 14° N visible
08 Apr 6.2 23:18:16 10° N 23:18:55 14° N 23:18:55 14° N visible
09 Apr 6.2 23:04:11 10° N 23:04:53 14° N 23:04:53 14° N visible
10 Apr 6.1 22:50:07 10° N 22:50:52 15° NNE 22:50:52 15° NNE visible
11 Apr 6.1 22:36:03 10° N 22:36:51 15° NNE 22:36:51 15° NNE visible
12 Apr 6.0 22:22:00 10° NNE 22:22:51 15° NNE 22:22:51 15° NNE visible
